| time (UTC) | temp F | wind direction | speed MPH | gust MPH | rain 1hr in | rain 24hr in | rain mn in | humidity % | barometer mb |
| 20260506131515 | 47 | 326 | 0.0 | 5.0 | 0.00 | 0.13 | 0.00 | 82 | 1018.7 |
| 20260506130110 | 46 | 228 | 0.0 | 3.0 | 0.00 | 0.13 | 0.00 | 86 | 1018.4 |
| 20260506124521 | 46 | 228 | 0.0 | 3.0 | 0.00 | 0.14 | 0.00 | 88 | 1018.5 |
| 20260506123113 | 46 | 228 | 0.0 | 1.0 | 0.00 | 0.14 | 0.00 | 88 | 1018.2 |
| 20260506121523 | 46 | 228 | 0.0 | 2.0 | 0.00 | 0.14 | 0.00 | 88 | 1017.8 |
| 20260506120113 | 45 | 228 | 0.0 | 3.0 | 0.00 | 0.14 | 0.00 | 88 | 1017.4 |
| 20260506114533 | 45 | 11 | 1.0 | 2.0 | 0.00 | 0.18 | 0.00 | 88 | 1016.8 |
| 20260506113007 | 45 | 228 | 0.0 | 4.0 | 0.00 | 0.18 | 0.00 | 88 | 1016.7 |
| 20260506111611 | 45 | 261 | 0.0 | 5.0 | 0.00 | 0.18 | 0.00 | 88 | 1016.8 |
| 20260506110012 | 45 | 11 | 0.0 | 4.0 | 0.00 | 0.18 | 0.00 | 89 | 1017.3 |
| 20260506104608 | 45 | 11 | 1.0 | 6.0 | 0.00 | 0.18 | 0.00 | 89 | 1017.5 |
| 20260506103027 | 45 | 11 | 2.0 | 8.0 | 0.00 | 0.18 | 0.00 | 90 | 1017.8 |
| 20260506101604 | 45 | 286 | 2.0 | 8.0 | 0.00 | 0.18 | 0.00 | 90 | 1017.8 |
| 20260506100031 | 45 | 11 | 1.0 | 8.0 | 0.00 | 0.18 | 0.00 | 89 | 1017.4 |
| 20260506094608 | 45 | 11 | 0.0 | 0.0 | 0.00 | 0.18 | 0.00 | 88 | 1016.4 |
| 20260506093021 | 45 | 11 | 0.0 | 2.0 | 0.00 | 0.18 | 0.00 | 88 | 1016.3 |
| 20260506091610 | 45 | 11 | 0.0 | 2.0 | 0.00 | 0.18 | 0.00 | 88 | 1016.3 |
| 20260506090021 | 45 | 11 | 0.0 | 2.0 | 0.00 | 0.18 | 0.00 | 88 | 1016.2 |
| 20260506084611 | 45 | 11 | 0.0 | 2.0 | 0.00 | 0.19 | 0.00 | 88 | 1016.4 |
| 20260506083033 | 46 | 11 | 0.0 | 2.0 | 0.00 | 0.19 | 0.00 | 88 | 1016.2 |
| 20260506081621 | 46 | 11 | 0.0 | 2.0 | 0.00 | 0.19 | 0.00 | 87 | 1016.4 |
| 20260506073036 | 46 | 11 | 0.0 | 2.0 | 0.00 | 0.35 | 0.00 | 85 | 1015.3 |
| 20260506071619 | 46 | 11 | 0.0 | 5.0 | 0.00 | 0.35 | 0.00 | 85 | 1015.1 |
| 20260506061619 | 46 | 11 | 2.0 | 5.0 | 0.00 | 0.37 | 0.00 | 82 | 1016.3 |
| 20260506044517 | 48 | 27 | 3.0 | 9.0 | 0.00 | 0.43 | 0.43 | 77 | 1015.7 |
| 20260506043105 | 48 | 37 | 4.0 | 9.0 | 0.00 | 0.43 | 0.43 | 76 | 1015.5 |
| 20260506041519 | 49 | 2 | 5.0 | 15.0 | 0.00 | 0.43 | 0.43 | 76 | 1015.6 |
| 20260506034520 | 49 | 47 | 0.0 | 0.0 | 0.00 | 0.43 | 0.43 | 83 | 1015.0 |
| 20260506033108 | 49 | 47 | 0.0 | 1.0 | 0.00 | 0.43 | 0.43 | 82 | 1014.7 |
| 20260506031531 | 49 | 47 | 0.0 | 4.0 | 0.00 | 0.43 | 0.43 | 84 | 1014.2 |
| 20260506030111 | 49 | 33 | 1.0 | 4.0 | 0.00 | 0.43 | 0.43 | 85 | 1014.0 |
| 20260506024539 | 50 | 48 | 3.0 | 6.0 | 0.00 | 0.43 | 0.43 | 88 | 1013.5 |
| 20260506023126 | 50 | 56 | 0.0 | 0.0 | 0.00 | 0.43 | 0.43 | 88 | 1013.3 |
| 20260506021539 | 50 | 57 | 0.0 | 1.0 | 0.00 | 0.43 | 0.43 | 88 | 1013.2 |
| 20260506020123 | 51 | 56 | 0.0 | 2.0 | 0.00 | 0.43 | 0.43 | 87 | 1013.1 |
| 20260506014538 | 51 | 57 | 0.0 | 0.0 | 0.00 | 0.43 | 0.43 | 86 | 1012.6 |
| 20260506013122 | 51 | 57 | 0.0 | 0.0 | 0.00 | 0.43 | 0.43 | 85 | 1012.5 |
| 20260506011600 | 52 | 55 | 0.0 | 0.0 | 0.00 | 0.43 | 0.43 | 86 | 1012.4 |
| 20260506010124 | 52 | 56 | 0.0 | 1.0 | 0.00 | 0.43 | 0.43 | 85 | 1012.4 |
| 20260506004557 | 52 | 56 | 0.0 | 0.0 | 0.00 | 0.43 | 0.43 | 85 | 1012.2 |
| 20260506003126 | 52 | 55 | 0.0 | 0.0 | 0.00 | 0.43 | 0.43 | 84 | 1012.1 |
| 20260506001536 | 53 | 56 | 0.0 | 3.0 | 0.00 | 0.43 | 0.43 | 85 | 1012.1 |
| 20260506000123 | 53 | 60 | 0.0 | 0.0 | 0.00 | 0.43 | 0.43 | 84 | 1011.6 |
| 20260505234546 | 52 | 56 | 0.0 | 0.0 | 0.00 | 0.43 | 0.43 | 84 | 1011.9 |
| 20260505233133 | 52 | 56 | 0.0 | 0.0 | 0.00 | 0.43 | 0.43 | 84 | 1011.9 |
| 20260505231615 | 52 | 56 | 0.0 | 0.0 | 0.00 | 0.43 | 0.43 | 85 | 1011.9 |
| 20260505230048 | 52 | 56 | 0.0 | 1.0 | 0.00 | 0.43 | 0.43 | 85 | 1012.1 |
| 20260505224624 | 52 | 55 | 0.0 | 2.0 | 0.00 | 0.43 | 0.43 | 85 | 1012.0 |
| 20260505223039 | 52 | 55 | 1.0 | 2.0 | 0.00 | 0.43 | 0.43 | 86 | 1011.8 |
| 20260505221623 | 52 | 56 | 0.0 | 1.0 | 0.00 | 0.43 | 0.43 | 86 | 1011.9 |
| 20260505220039 | 51 | 63 | 0.0 | 1.0 | 0.00 | 0.43 | 0.43 | 86 | 1011.9 |
| 20260505214630 | 51 | 64 | 0.0 | 1.0 | 0.00 | 0.43 | 0.43 | 86 | 1012.0 |
| 20260505213055 | 51 | 65 | 0.0 | 3.0 | 0.00 | 0.43 | 0.43 | 86 | 1012.0 |
| 20260505211524 | 51 | 50 | 1.0 | 3.0 | 0.00 | 0.43 | 0.43 | 88 | 1011.9 |
| 20260505210053 | 50 | 50 | 0.0 | 3.0 | 0.00 | 0.43 | 0.43 | 88 | 1012.2 |
| 20260505204509 | 50 | 49 | 1.0 | 4.0 | 0.00 | 0.43 | 0.43 | 89 | 1012.0 |
| 20260505203103 | 49 | 36 | 0.0 | 2.0 | 0.00 | 0.43 | 0.43 | 89 | 1012.2 |
| 20260505201517 | 49 | 37 | 0.0 | 5.0 | 0.00 | 0.43 | 0.43 | 88 | 1012.2 |
| 20260505200111 | 49 | 45 | 1.0 | 5.0 | 0.00 | 0.43 | 0.43 | 88 | 1012.3 |
| 20260505194534 | 48 | 56 | 1.0 | 5.0 | 0.00 | 0.43 | 0.43 | 88 | 1012.4 |
| 20260505193125 | 48 | 57 | 3.0 | 6.0 | 0.00 | 0.43 | 0.43 | 89 | 1012.0 |
| 20260505191534 | 48 | 11 | 2.0 | 5.0 | 0.00 | 0.43 | 0.43 | 90 | 1012.0 |
| 20260505190121 | 48 | 11 | 1.0 | 4.0 | 0.00 | 0.43 | 0.43 | 91 | 1012.0 |
| 20260505184536 | 48 | 11 | 3.0 | 4.0 | 0.01 | 0.43 | 0.43 | 91 | 1012.1 |
| 20260505183113 | 48 | 107 | 1.0 | 6.0 | 0.01 | 0.43 | 0.43 | 92 | 1012.3 |
| 20260505181525 | 47 | 84 | 3.0 | 9.0 | 0.01 | 0.43 | 0.43 | 92 | 1012.7 |
| 20260505180113 | 48 | 75 | 2.0 | 4.0 | 0.01 | 0.43 | 0.43 | 92 | 1012.7 |
| 20260505174533 | 47 | 74 | 3.0 | 5.0 | 0.01 | 0.42 | 0.42 | 92 | 1012.8 |
| 20260505173123 | 47 | 100 | 1.0 | 7.0 | 0.01 | 0.42 | 0.42 | 92 | 1012.8 |
| 20260505171539 | 47 | 76 | 1.0 | 5.0 | 0.01 | 0.42 | 0.42 | 92 | 1012.8 |
| 20260505170126 | 47 | 11 | 3.0 | 6.0 | 0.02 | 0.42 | 0.42 | 92 | 1012.7 |
| 20260505164535 | 47 | 93 | 3.0 | 10.0 | 0.02 | 0.41 | 0.41 | 92 | 1012.6 |
| 20260505163128 | 47 | 11 | 3.0 | 9.0 | 0.05 | 0.41 | 0.41 | 92 | 1012.5 |
| 20260505161551 | 47 | 11 | 5.0 | 9.0 | 0.06 | 0.41 | 0.41 | 92 | 1012.5 |
| 20260505153002 | 47 | 55 | 2.0 | 6.0 | 0.01 | 0.36 | 0.36 | 91 | 1012.8 |
| 20260505151554 | 47 | 77 | 2.0 | 11.0 | 0.00 | 0.35 | 0.35 | 91 | 1012.5 |